Location: Unspecified
(0.0000°N, 0.0000°E)
Time: 10:12:29
(UTC+00:00)

deb r/b Ablestar - Pass Details

Date: 12 February 2026
Orbit: 889 x 1146 km, 67.2° (Epoch: 10 March)

Event Time Altitude Azimuth Distance (km) Brightness Sun altitude
Rises 05:44:29 0° 333° (NNW) 3,887 ? -7.2°
Reaches altitude 10° 05:47:07 10° 329° (NNW) 2,960 ? -6.6°
Maximum altitude 05:54:04 60° 251° (WSW) 1,287 ? -4.9°
Drops below altitude 10° 06:01:13 10° 173° (S) 3,040 ? -3.2°
Sets 06:03:58 0° 169° (SSE) 3,997 ? -2.5°
